When you browse on this site, cookies collect data to enhance your experience and personalize the content and advertising you see.
Visit our Privacy Policy to learn more. By continuing to use the site, you agree to this use of cookies and data.
  • en France
  • Liste des pays
  • À 7 jours
  • Température de l'eau
  • Carte satellitaire
  • Carte météo
  • Widgets météo
  • user-avatar
    Se connecter

    Météo par heure à Chakhansur

    Ce jour, 18 Novembre, Dimanche

    Heure Température Précipitation Vent Pression Humidité
    00:00 +20°C° 0 mm 4 m/s 720 mmHg 34%
    01:00 +19°C° 0 mm 4 m/s 720 mmHg 37%
    02:00 +19°C° 0 mm 4 m/s 720 mmHg 38%
    03:00 +18°C° 0 mm 4 m/s 720 mmHg 39%
    04:00 +17°C° 0 mm 5 m/s 720 mmHg 40%
    05:00 +17°C° 0 mm 5 m/s 720 mmHg 40%
    06:00 +16°C° 0 mm 5 m/s 720 mmHg 41%
    07:00 +16°C° 0 mm 5 m/s 720 mmHg 41%
    08:00 +19°C° 0 mm 5 m/s 721 mmHg 37%
    09:00 +20°C° 0 mm 6 m/s 721 mmHg 33%
    10:00 +23°C° 0 mm 6 m/s 722 mmHg 29%
    11:00 +23°C° 0 mm 6 m/s 721 mmHg 27%
    12:00 +24°C° 0 mm 6 m/s 721 mmHg 26%
    13:00 +26°C° 0 mm 6 m/s 721 mmHg 24%
    14:00 +26°C° 0 mm 6 m/s 720 mmHg 24%
    15:00 +24°C° 0 mm 6 m/s 720 mmHg 25%
    16:00 +24°C° 0 mm 6 m/s 720 mmHg 25%
    17:00 +23°C° 0 mm 5 m/s 720 mmHg 28%
    18:00 +21°C° 0 mm 4 m/s 720 mmHg 31%
    19:00 +20°C° 0 mm 4 m/s 721 mmHg 34%
    20:00 +19°C° 0 mm 4 m/s 721 mmHg 37%
    21:00 +19°C° 0 mm 4 m/s 721 mmHg 39%
    22:00 +18°C° 0 mm 4 m/s 721 mmHg 41%
    23:00 +17°C° 0 mm 4 m/s 721 mmHg 43%

    Demain, 19 Novembre, Lundi

    Heure Température Précipitation Vent Pression Humidité
    00:00 +17°C° 0 mm 4 m/s 721 mmHg 44%
    01:00 +15°C° 0 mm 4 m/s 721 mmHg 46%
    02:00 +15°C° 0 mm 4 m/s 721 mmHg 47%
    03:00 +14°C° 0 mm 3 m/s 721 mmHg 48%
    04:00 +14°C° 0 mm 3 m/s 720 mmHg 49%
    05:00 +14°C° 0 mm 3 m/s 721 mmHg 49%
    06:00 +15°C° 0 mm 2 m/s 721 mmHg 49%
    07:00 +14°C° 0 mm 2 m/s 722 mmHg 49%
    08:00 +16°C° 0 mm 2 m/s 722 mmHg 44%
    09:00 +18°C° 0 mm 2 m/s 722 mmHg 39%
    10:00 +19°C° 0 mm 2 m/s 723 mmHg 34%
    11:00 +22°C° 0 mm 1 m/s 723 mmHg 30%
    12:00 +23°C° 0 mm 1 m/s 722 mmHg 27%
    13:00 +24°C° 0 mm 1 m/s 722 mmHg 24%
    14:00 +24°C° 0 mm 1 m/s 722 mmHg 23%
    15:00 +24°C° 0 mm 1 m/s 722 mmHg 22%
    16:00 +24°C° 0 mm 1 m/s 721 mmHg 22%
    17:00 +23°C° 0 mm 1 m/s 722 mmHg 24%
    18:00 +22°C° 0 mm 1 m/s 722 mmHg 26%
    19:00 +20°C° 0 mm 1 m/s 722 mmHg 29%
    20:00 +20°C° 0 mm 1 m/s 722 mmHg 29%
    21:00 +20°C° 0 mm 1 m/s 722 mmHg 30%
    22:00 +19°C° 0 mm 1 m/s 722 mmHg 30%
    23:00 +18°C° 0 mm 2 m/s 722 mmHg 31%

    Après-demain, 20 Novembre, Mardi

    Heure Température Précipitation Vent Pression Humidité
    00:00 +18°C° 0 mm 2 m/s 722 mmHg 32%
    01:00 +17°C° 0 mm 2 m/s 722 mmHg 32%
    02:00 +17°C° 0 mm 2 m/s 722 mmHg 32%
    03:00 +17°C° 0 mm 2 m/s 722 mmHg 33%
    04:00 +17°C° 0 mm 2 m/s 722 mmHg 33%
    05:00 +17°C° 0 mm 2 m/s 722 mmHg 33%
    06:00 +17°C° 0 mm 2 m/s 722 mmHg 33%
    07:00 +17°C° 0 mm 3 m/s 723 mmHg 33%
    08:00 +19°C° 0 mm 3 m/s 723 mmHg 30%
    09:00 +20°C° 0 mm 2 m/s 724 mmHg 26%
    10:00 +23°C° 0 mm 2 m/s 724 mmHg 23%
    11:00 +24°C° 0 mm 2 m/s 723 mmHg 22%
    12:00 +25°C° 0 mm 2 m/s 723 mmHg 21%
    13:00 +26°C° 0 mm 2 m/s 722 mmHg 20%
    14:00 +26°C° 0 mm 2 m/s 722 mmHg 20%
    15:00 +26°C° 0 mm 2 m/s 721 mmHg 19%
    16:00 +27°C° 0 mm 2 m/s 721 mmHg 19%
    17:00 +25°C° 0 mm 2 m/s 721 mmHg 21%
    18:00 +24°C° 0 mm 3 m/s 721 mmHg 23%
    19:00 +22°C° 0 mm 3 m/s 721 mmHg 24%
    20:00 +22°C° 0 mm 3 m/s 721 mmHg 25%
    21:00 +22°C° 0 mm 3 m/s 721 mmHg 25%
    22:00 +21°C° 0 mm 3 m/s 721 mmHg 26%
    23:00 +21°C° 0 mm 3 m/s 721 mmHg 26%

    21 Novembre, Mercredi

    Heure Température Précipitation Vent Pression Humidité
    00:00 +21°C° 0 mm 3 m/s 720 mmHg 27%
    01:00 +20°C° 0 mm 3 m/s 720 mmHg 27%
    02:00 +20°C° 0 mm 3 m/s 720 mmHg 28%
    03:00 +20°C° 0 mm 3 m/s 719 mmHg 28%
    04:00 +20°C° 0 mm 3 m/s 719 mmHg 29%
    05:00 +20°C° 0 mm 3 m/s 719 mmHg 29%
    06:00 +20°C° 0 mm 3 m/s 719 mmHg 30%
    07:00 +20°C° 0 mm 3 m/s 719 mmHg 31%
    08:00 +20°C° 0.1 mm 3 m/s 720 mmHg 29%
    09:00 +21°C° 0.1 mm 3 m/s 720 mmHg 28%
    10:00 +22°C° 0.1 mm 3 m/s 720 mmHg 27%
    11:00 +22°C° 0.2 mm 3 m/s 719 mmHg 27%
    12:00 +24°C° 0.2 mm 3 m/s 719 mmHg 28%
    13:00 +24°C° 0.2 mm 3 m/s 718 mmHg 29%
    14:00 +22°C° 0.6 mm 3 m/s 718 mmHg 32%
    15:00 +22°C° 0.6 mm 4 m/s 717 mmHg 34%
    16:00 +22°C° 0.6 mm 4 m/s 717 mmHg 37%
    17:00 +21°C° 0.1 mm 4 m/s 718 mmHg 40%
    18:00 +20°C° 0.1 mm 4 m/s 718 mmHg 43%
    19:00 +20°C° 0.1 mm 4 m/s 719 mmHg 45%
    20:00 +19°C° 0 mm 3 m/s 719 mmHg 48%
    21:00 +19°C° 0 mm 2 m/s 719 mmHg 50%
    22:00 +18°C° 0 mm 2 m/s 720 mmHg 52%
    23:00 +18°C° 0 mm 2 m/s 720 mmHg 54%

    22 Novembre, Jeudi

    Heure Température Précipitation Vent Pression Humidité
    00:00 +17°C° 0 mm 2 m/s 719 mmHg 56%
    01:00 +17°C° 0 mm 2 m/s 719 mmHg 57%
    02:00 +17°C° 0 mm 2 m/s 720 mmHg 59%
    03:00 +16°C° 0 mm 2 m/s 720 mmHg 60%
    04:00 +16°C° 0 mm 3 m/s 720 mmHg 62%
    05:00 +16°C° 0 mm 2 m/s 720 mmHg 63%
    06:00 +16°C° 0 mm 2 m/s 721 mmHg 63%
    07:00 +16°C° 0 mm 2 m/s 721 mmHg 64%
    08:00 +17°C° 0 mm 2 m/s 722 mmHg 59%
    09:00 +19°C° 0 mm 2 m/s 722 mmHg 53%
    10:00 +20°C° 0 mm 2 m/s 723 mmHg 48%
    11:00 +22°C° 0 mm 1 m/s 722 mmHg 45%
    12:00 +23°C° 0 mm 1 m/s 722 mmHg 41%
    13:00 +22°C° 0 mm 0 m/s 721 mmHg 38%
    14:00 +22°C° 0 mm 0 m/s 721 mmHg 37%
    15:00 +22°C° 0 mm 0 m/s 721 mmHg 35%
    16:00 +22°C° 0 mm 0 m/s 721 mmHg 34%
    17:00 +23°C° 0 mm 1 m/s 721 mmHg 36%
    18:00 +22°C° 0 mm 1 m/s 721 mmHg 39%
    19:00 +21°C° 0 mm 1 m/s 722 mmHg 41%
    20:00 +20°C° 0 mm 2 m/s 722 mmHg 42%
    21:00 +20°C° 0 mm 2 m/s 722 mmHg 42%
    22:00 +20°C° 0 mm 2 m/s 722 mmHg 43%
    23:00 +19°C° 0 mm 3 m/s 722 mmHg 43%

    23 Novembre, Vendredi

    Heure Température Précipitation Vent Pression Humidité
    00:00 +19°C° 0 mm 3 m/s 722 mmHg 44%
    01:00 +19°C° 0 mm 3 m/s 722 mmHg 44%
    02:00 +18°C° 0 mm 3 m/s 721 mmHg 44%
    03:00 +18°C° 0 mm 3 m/s 721 mmHg 44%
    04:00 +18°C° 0 mm 3 m/s 721 mmHg 44%
    05:00 +18°C° 0 mm 3 m/s 722 mmHg 44%
    06:00 +18°C° 0 mm 3 m/s 722 mmHg 44%
    07:00 +18°C° 0 mm 4 m/s 722 mmHg 44%
    08:00 +20°C° 0 mm 4 m/s 723 mmHg 39%
    09:00 +22°C° 0 mm 4 m/s 723 mmHg 34%
    10:00 +25°C° 0 mm 5 m/s 723 mmHg 29%
    11:00 +26°C° 0 mm 5 m/s 723 mmHg 27%
    12:00 +27°C° 0 mm 4 m/s 722 mmHg 26%
    13:00 +28°C° 0 mm 4 m/s 721 mmHg 24%
    14:00 +28°C° 0 mm 3 m/s 721 mmHg 24%
    15:00 +28°C° 0 mm 3 m/s 721 mmHg 24%
    16:00 +28°C° 0 mm 2 m/s 720 mmHg 24%
    17:00 +27°C° 0 mm 2 m/s 721 mmHg 26%
    18:00 +26°C° 0 mm 2 m/s 721 mmHg 27%
    19:00 +24°C° 0 mm 2 m/s 721 mmHg 29%
    20:00 +24°C° 0 mm 2 m/s 721 mmHg 30%
    21:00 +24°C° 0 mm 3 m/s 721 mmHg 30%
    22:00 +23°C° 0 mm 4 m/s 721 mmHg 30%
    23:00 +22°C° 0 mm 4 m/s 721 mmHg 31%
    Voir plus